FW9262 Weather Reports


time (UTC)temp
F
wind
direction
speed
knots
gust
knots
rain 1hr
in
rain 24hr
in
rain mn
in
humidity
%
barometer
mb
20260502212049 66 235 2.6 5.2 0.00 0.00 0.00 77 1015.6
20260502211544 66 292 2.6 6.1 0.00 0.00 0.00 77 1015.6
20260502211042 66 294 1.7 6.1 0.00 0.00 0.00 77 1016.0
20260502210539 66 206 1.7 5.2 0.00 0.00 0.00 76 1016.0
20260502210036 67 293 2.6 5.2 0.00 0.00 0.00 75 1015.6
20260502205532 68 211 2.6 5.2 0.00 0.00 0.00 75 1016.0
20260502205030 67 243 2.6 6.1 0.00 0.00 0.00 75 1016.0
20260502204526 66 316 1.7 5.2 0.00 0.00 0.00 76 1016.0
20260502204024 67 247 4.3 6.1 0.00 0.00 0.00 76 1016.0
20260502203521 67 182 2.6 6.1 0.00 0.00 0.00 75 1016.0
20260502203018 68 159 2.6 3.5 0.00 0.00 0.00 73 1015.6
20260502202514 67 249 1.7 3.5 0.00 0.00 0.00 75 1016.0
20260502202013 67 237 0.9 3.5 0.00 0.00 0.00 75 1016.0
20260502201508 67 334 0.9 3.5 0.00 0.00 0.00 75 1016.0
20260502201004 66 184 1.7 5.2 0.00 0.00 0.00 77 1015.6
20260502200501 67 309 1.7 2.6 0.00 0.00 0.00 76 1016.0
20260502195959 66 252 1.7 3.5 0.00 0.00 0.00 78 1015.6
20260502195456 66 261 1.7 5.2 0.00 0.00 0.00 78 1016.0
20260502194951 67 315 3.5 3.5 0.00 0.00 0.00 76 1016.0
20260502194449 67 241 2.6 5.2 0.00 0.00 0.00 76 1016.3
20260502193944 67 228 1.7 3.5 0.00 0.00 0.00 77 1016.0
20260502193442 66 265 0.9 3.5 0.00 0.00 0.00 78 1016.3
20260502192938 66 250 1.7 5.2 0.00 0.00 0.00 78 1016.6
20260502192435 65 271 1.7 3.5 0.00 0.00 0.00 79 1016.3
20260502191931 65 244 1.7 3.5 0.00 0.00 0.00 79 1016.6
20260502191429 66 343 1.7 2.6 0.00 0.00 0.00 78 1016.6
20260502190927 65 290 0.9 3.5 0.00 0.00 0.00 79 1016.6
20260502190424 65 296 0.9 3.5 0.00 0.00 0.00 80 1017.0
20260502185920 64 259 2.6 5.2 0.00 0.00 0.00 82 1017.0
20260502185415 64 198 1.7 6.1 0.00 0.00 0.00 82 1017.3
20260502184913 64 222 2.6 5.2 0.00 0.00 0.00 82 1017.0
20260502184408 63 227 2.6 5.2 0.00 0.00 0.00 82 1017.0
20260502183905 64 337 0.9 3.5 0.00 0.00 0.00 82 1017.0
20260502183401 64 309 2.6 5.2 0.00 0.00 0.00 80 1017.0
20260502182856 65 239 0.9 1.7 0.00 0.00 0.00 80 1017.3
20260502182352 65 305 0.9 2.6 0.00 0.00 0.00 80 1017.0
20260502181848 64 299 0.0 1.7 0.00 0.00 0.00 81 1017.3
20260502181347 64 218 1.7 2.6 0.00 0.00 0.00 80 1017.0
20260502180845 64 333 0.0 1.7 0.00 0.00 0.00 81 1017.0
20260502180342 64 301 0.0 0.9 0.00 0.00 0.00 81 1017.0
20260502170301 62 341 0.0 0.0 0.00 0.00 0.00 86 1017.6
20260502164248 62 350 0.0 0.0 0.00 0.00 0.00 85 1017.6
20260502163744 62 347 0.0 0.0 0.00 0.00 0.00 86 1017.6
20260502163241 62 352 0.0 0.0 0.00 0.00 0.00 86 1017.6
20260502162738 61 351 0.0 0.0 0.00 0.00 0.00 87 1017.6
20260502162234 61 356 0.0 0.0 0.00 0.00 0.00 87 1017.6
20260502161731 61 13 0.9 0.9 0.00 0.00 0.00 88 1017.6
20260502161227 60 1 0.0 0.9 0.00 0.00 0.00 88 1017.6
20260502160726 60 54 0.9 1.7 0.00 0.00 0.00 87 1017.6
20260502160225 60 4 0.0 0.0 0.00 0.00 0.00 88 1017.6
20260502152149 59 32 0.9 0.9 0.00 0.00 0.00 89 1017.6
20260502151646 59 9 0.0 0.9 0.00 0.00 0.00 90 1017.6
20260502151143 59 79 0.9 2.6 0.00 0.00 0.00 90 1017.6
20260502150641 59 23 0.9 1.7 0.00 0.00 0.00 90 1017.6
20260502150137 59 23 0.9 1.7 0.00 0.00 0.00 90 1017.0
20260502130525 58 330 0.0 0.0 0.00 0.00 0.00 92 1016.6
20260502123509 58 328 0.0 1.7 0.00 0.00 0.00 92 1016.3
20260502123005 58 328 0.0 0.9 0.00 0.00 0.00 92 1016.6
20260502122501 58 313 0.0 1.7 0.00 0.00 0.00 92 1016.3
20260502121959 58 307 0.9 1.7 0.00 0.00 0.00 92 1016.3
20260502121456 58 319 0.9 1.7 0.00 0.00 0.00 92 1016.3
20260502120954 58 328 1.7 1.7 0.00 0.00 0.00 92 1016.3
20260502120450 58 233 0.9 2.6 0.00 0.00 0.00 92 1016.3
20260502115444 58 308 1.7 2.6 0.00 0.00 0.00 92 1016.0
20260502114940 59 293 0.0 1.7 0.00 0.00 0.00 92 1016.3
20260502114437 59 279 0.9 1.7 0.00 0.00 0.00 92 1016.3
20260502113935 59 294 0.0 1.7 0.00 0.00 0.00 92 1016.3
20260502113432 59 290 0.9 2.6 0.00 0.00 0.00 92 1016.3
20260502112931 59 324 0.0 0.9 0.00 0.00 0.00 92 1016.0
20260502112428 59 332 0.0 0.9 0.00 0.00 0.00 92 1016.0
20260502111925 59 333 0.9 0.9 0.00 0.00 0.00 92 1016.0
20260502111422 59 332 0.0 0.9 0.00 0.00 0.00 92 1016.0
20260502110919 59 331 0.0 0.9 0.00 0.00 0.00 92 1016.0
20260502110417 59 329 0.9 0.9 0.00 0.00 0.00 92 1016.0
20260502105914 59 313 0.0 1.7 0.00 0.00 0.00 92 1016.0
20260502105411 59 333 0.0 0.0 0.00 0.00 0.00 92 1016.0
20260502104909 59 321 0.0 1.7 0.00 0.00 0.00 92 1016.0
20260502104406 59 307 0.9 0.9 0.00 0.00 0.00 92 1016.0
20260502103904 59 332 0.0 0.0 0.00 0.00 0.00 92 1016.0
20260502103401 59 328 0.0 0.0 0.00 0.00 0.00 92 1016.0
20260502102858 59 332 0.0 0.0 0.00 0.00 0.00 92 1016.0
20260502102355 59 331 0.0 0.9 0.00 0.00 0.00 92 1016.0
20260502101852 59 332 0.0 0.0 0.00 0.00 0.00 92 1016.0
20260502101350 59 324 0.0 0.0 0.00 0.00 0.00 92 1016.0
20260502100848 58 333 0.0 0.0 0.00 0.00 0.00 93 1015.6
20260502100347 58 333 0.0 1.7 0.00 0.00 0.00 93 1015.6
20260502091321 57 332 0.0 0.0 0.00 0.00 0.00 93 1016.0
20260502090819 57 315 0.0 0.0 0.00 0.00 0.00 93 1016.0
20260502090315 57 332 0.0 0.0 0.00 0.00 0.00 93 1016.0
20260502071210 58 319 0.0 0.0 0.00 0.00 0.00 90 1016.6
20260502070709 58 331 0.0 0.0 0.00 0.00 0.00 90 1017.0
20260502070206 58 328 0.0 0.0 0.00 0.00 0.00 90 1017.0
20260502065704 58 336 0.0 0.0 0.00 0.00 0.00 89 1017.0
20260502065201 58 330 0.0 0.0 0.00 0.00 0.00 89 1017.0
20260502064700 58 338 0.0 0.0 0.00 0.00 0.00 89 1017.0
20260502064156 59 339 0.0 0.0 0.00 0.00 0.00 89 1016.6
20260502063655 59 329 0.0 0.9 0.00 0.00 0.00 89 1016.6
20260502063152 59 329 0.0 0.0 0.00 0.00 0.00 88 1016.6
20260502062649 59 333 0.0 0.0 0.00 0.00 0.00 88 1016.6
20260502062147 59 9 0.9 0.9 0.00 0.00 0.00 88 1016.6
20260502061645 59 349 0.0 0.0 0.00 0.00 0.00 88 1016.3
20260502061142 59 325 0.0 0.9 0.00 0.00 0.00 88 1016.3
20260502060642 59 342 0.0 0.0 0.00 0.00 0.00 88 1016.3
20260502060139 59 324 0.9 1.7 0.00 0.00 0.00 88 1016.6
20260502055637 59 351 0.0 0.0 0.00 0.00 0.00 88 1016.6
20260502055135 59 337 0.0 0.0 0.00 0.00 0.00 88 1016.6
20260502054634 59 336 0.0 0.0 0.00 0.00 0.00 89 1016.6
20260502054131 59 354 0.0 0.0 0.00 0.00 0.00 89 1016.6
20260502053628 59 333 0.0 0.0 0.00 0.00 0.00 89 1016.6
20260502053125 59 342 0.0 0.0 0.00 0.00 0.00 89 1016.6
20260502052623 59 315 0.0 1.7 0.00 0.00 0.00 88 1016.6
20260502052121 59 328 0.0 0.9 0.00 0.00 0.00 89 1017.0
20260502051619 59 344 0.0 2.6 0.00 0.00 0.00 89 1016.6
20260502051117 59 341 0.0 0.0 0.00 0.00 0.00 89 1016.6
20260502050613 59 345 0.0 0.0 0.00 0.00 0.00 89 1016.6
20260502050110 59 330 0.0 1.7 0.00 0.00 0.00 89 1016.6
20260502045606 60 285 0.9 1.7 0.00 0.00 0.00 89 1016.6
20260502045103 60 289 0.0 1.7 0.00 0.00 0.00 89 1016.3
20260502044559 60 337 1.7 2.6 0.00 0.00 0.00 89 1016.6
20260502044056 60 215 0.9 1.7 0.00 0.00 0.00 89 1016.6
20260502043554 60 223 1.7 2.6 0.00 0.00 0.00 88 1016.3
20260502043050 60 353 0.9 2.6 0.00 0.00 0.00 88 1016.0
20260502042545 60 243 1.7 3.5 0.00 0.00 0.00 88 1016.3
20260502042043 60 295 0.9 2.6 0.00 0.00 0.00 88 1016.0
20260502041540 60 257 0.9 1.7 0.00 0.00 0.00 88 1016.0
20260502041037 60 295 2.6 3.5 0.00 0.00 0.00 88 1016.0
20260502040534 59 252 1.7 3.5 0.00 0.00 0.00 88 1015.6
20260502040031 60 258 1.7 2.6 0.00 0.00 0.00 88 1016.0
20260502035526 60 287 2.6 3.5 0.00 0.00 0.00 88 1015.6
20260502035025 60 328 3.5 3.5 0.00 0.00 0.00 87 1015.6
20260502034522 60 342 0.9 2.6 0.00 0.00 0.00 87 1015.6
20260502034021 60 231 2.6 2.6 0.00 0.00 0.00 87 1015.6
20260502033518 60 315 1.7 3.5 0.00 0.00 0.00 86 1015.3
20260502033015 60 283 2.6 3.5 0.00 0.00 0.00 86 1015.3
20260502032511 60 275 1.7 2.6 0.00 0.00 0.00 86 1014.9
20260502032008 60 261 2.6 3.5 0.00 0.00 0.00 86 1014.9
20260502031506 60 331 1.7 3.5 0.00 0.00 0.00 86 1014.9
20260502031004 60 250 1.7 5.2 0.00 0.00 0.00 86 1014.9
20260502030502 60 328 1.7 2.6 0.00 0.00 0.00 86 1014.9
20260502030000 60 247 1.7 2.6 0.00 0.00 0.00 86 1014.9
20260502025456 61 283 1.7 2.6 0.00 0.00 0.00 87 1014.6
20260502024954 61 268 0.9 6.1 0.00 0.00 0.00 86 1014.6
20260502024452 61 244 2.6 5.2 0.00 0.00 0.00 86 1014.9
20260502023950 61 229 3.5 6.1 0.00 0.00 0.00 86 1014.6
20260502023447 61 294 2.6 5.2 0.00 0.00 0.00 85 1014.9
20260502022945 61 253 2.6 3.5 0.00 0.00 0.00 85 1014.9
20260502022441 62 205 1.7 5.2 0.00 0.00 0.00 85 1014.9
20260502021938 62 226 0.9 5.2 0.00 0.00 0.00 84 1014.9
20260502021435 62 236 0.9 3.5 0.00 0.00 0.00 84 1014.6
20260502020932 62 264 2.6 3.5 0.00 0.00 0.00 84 1014.6
20260502020430 62 308 1.7 3.5 0.00 0.00 0.00 84 1014.9
20260502015926 62 276 2.6 3.5 0.00 0.00 0.00 84 1014.3
20260502015424 62 341 0.9 2.6 0.00 0.00 0.00 84 1014.6
20260502014915 62 309 2.6 3.5 0.00 0.00 0.00 83 1014.6
20260502014412 62 188 3.5 5.2 0.00 0.00 0.00 83 1014.3
20260502013909 63 233 5.2 7.0 0.00 0.00 0.00 82 1014.3
20260502013404 63 328 0.9 5.2 0.00 0.00 0.00 82 1014.3
20260502012901 63 324 2.6 7.0 0.00 0.00 0.00 82 1014.6
20260502012359 63 257 3.5 7.0 0.00 0.00 0.00 81 1014.6
20260502011856 63 302 4.3 5.2 0.00 0.00 0.00 80 1014.6
20260502011352 64 326 1.7 6.1 0.00 0.00 0.00 80 1014.3
20260502010849 64 307 2.6 5.2 0.00 0.00 0.00 80 1014.6
20260502010346 64 250 2.6 7.0 0.00 0.00 0.00 79 1014.3
20260502005842 64 256 3.5 3.5 0.00 0.00 0.00 77 1014.6
20260502005341 65 302 1.7 5.2 0.00 0.00 0.00 77 1014.6
20260502004838 65 339 0.9 3.5 0.00 0.00 0.00 76 1014.3
20260502004333 65 224 2.6 6.1 0.00 0.00 0.00 75 1014.3
20260502003832 65 271 3.5 6.1 0.00 0.00 0.00 75 1014.3
20260502003328 65 258 3.5 5.2 0.00 0.00 0.00 76 1014.6
20260502002824 66 245 2.6 6.1 0.00 0.00 0.00 75 1014.3
20260502002322 66 284 0.9 6.1 0.00 0.00 0.00 75 1014.3
20260502001819 67 231 5.2 6.1 0.00 0.00 0.00 72 1014.3
20260502001317 67 225 5.2 6.1 0.00 0.00 0.00 72 1014.3
20260502000814 67 274 0.9 3.5 0.00 0.00 0.00 73 1014.3
20260502000312 69 269 2.6 7.8 0.00 0.00 0.00 70 1014.3
20260501235808 68 311 0.9 6.1 0.00 0.00 0.00 72 1014.6
20260501235305 67 246 3.5 5.2 0.00 0.00 0.00 73 1014.6
20260501234759 67 226 4.3 6.1 0.00 0.00 0.00 73 1014.6
20260501234257 67 257 0.9 5.2 0.00 0.00 0.00 73 1014.6
20260501233755 67 276 5.2 7.8 0.00 0.00 0.00 73 1014.6
20260501233252 67 190 1.7 5.2 0.00 0.00 0.00 73 1014.6
20260501232747 67 214 1.7 7.0 0.00 0.00 0.00 73 1014.6
20260501232245 66 121 2.6 6.1 0.00 0.00 0.00 74 1014.6
20260501231742 67 232 5.2 7.0 0.00 0.00 0.00 75 1014.9
20260501231240 67 350 1.7 6.1 0.00 0.00 0.00 74 1014.6
20260501230738 67 141 0.9 7.0 0.00 0.00 0.00 75 1014.6
20260501230237 67 244 7.0 7.8 0.00 0.00 0.00 75 1014.9
20260501225734 67 327 3.5 7.0 0.00 0.00 0.00 75 1014.9
20260501225231 67 284 4.3 7.0 0.00 0.00 0.00 75 1014.9
20260501224727 68 230 1.7 5.2 0.00 0.00 0.00 74 1014.9
20260501224225 67 278 4.3 7.0 0.00 0.00 0.00 74 1014.9
20260501223721 68 237 3.5 6.1 0.00 0.00 0.00 73 1014.9
20260501223218 68 254 3.5 6.1 0.00 0.00 0.00 73 1014.9
20260501222714 68 227 1.7 6.1 0.00 0.00 0.00 73 1014.9
20260501222211 68 247 2.6 7.8 0.00 0.00 0.00 74 1014.9
20260501221708 69 170 1.7 7.0 0.00 0.00 0.00 71 1015.3
20260501221205 68 301 3.5 7.0 0.00 0.00 0.00 71 1015.6
20260501220703 69 284 2.6 5.2 0.00 0.00 0.00 70 1015.3
20260501220200 69 224 3.5 8.7 0.00 0.00 0.00 70 1015.6
20260501215656 69 221 4.3 6.1 0.00 0.00 0.00 70 1015.6
20260501215152 69 208 2.6 6.1 0.00 0.00 0.00 69 1015.3
20260501214647 70 219 2.6 7.0 0.00 0.00 0.00 69 1016.0
20260501214142 69 17 0.9 5.2 0.00 0.00 0.00 70 1015.6
20260501213640 69 314 0.9 6.1 0.00 0.00 0.00 70 1016.0
20260501213135 69 240 3.5 5.2 0.00 0.00 0.00 69 1015.6
20260501212633 69 301 2.6 7.0 0.00 0.00 0.00 69 1016.0